Regional Weather Roundup
Issued by NWS

Home | Current Version | Previous Version | Text Only | Print | Product List | Glossary On
Versions: 1 2 3 4 5 6 7 8 9 10 11 12 13 14 15 16 17 18 19 20 21 22 23 24 25 26 27 28
000
ASUS42 KFFC 241203
RWRGA
WEATHER ROUNDUP FOR GEORGIA
NATIONAL WEATHER SERVICE PEACHTREE CITY GA
800 AM EDT WED AUG 24 2016

NOTE: "FAIR" INDICATES FEW OR NO CLOUDS BELOW 12,000 FEET WITH NO
SIGNIFICANT WEATHER AND/OR OBSTRUCTIONS TO VISIBILITY.

* = USE WITH CAUTION. THE STATIONS MARKED WITH AN ASTERISK MAY NOT
REPORT WEATHER SUCH AS PRECIPITATION, FOG, OR THUNDER AND ARE NOT
QUALITY CONTROLLED BY NWS.

THE REMARK "TC" DENOTES TEMPERATURE READING IN DEGREES CELSIUS.

GAZ001>058-241300-
NORTH GEORGIA

CITY           SKY/WX    TMP DP  RH WIND       PRES   REMARKS
ATLANTA        PTSUNNY   75  73  93 SE3       30.28R
6HR MIN TEMP:  74; 6HR MAX TEMP:  79;

ATHENS         CLOUDY    74  74 100 CALM      30.28R FOG
6HR MIN TEMP:  72; 6HR MAX TEMP:  75;

CHAMBLEE       CLOUDY    76  72  87 S3        30.28R
6HR MIN TEMP:  74; 6HR MAX TEMP:  77;

PEACHTREE CITY MOCLDY    73  72  96 CALM      30.27R
6HR MIN TEMP:  71; 6HR MAX TEMP:  73;

ROME           MOCLDY    74  71  91 CALM      30.25R
6HR MIN TEMP:  72; 6HR MAX TEMP:  74;

WEST ATLANTA   PTSUNNY   75  71  87 CALM      30.27R
6HR MIN TEMP:  72; 6HR MAX TEMP:  78;

GAINESVILLE    LGT RAIN  72  70  93 E3        30.32R FOG
6HR MIN TEMP:  71; 6HR MAX TEMP:  75; 6HR PCP: TRACE;

CARTERSVILLE   CLOUDY    73  71  93 E5        30.27R
6HR MIN TEMP:  71; 6HR MAX TEMP:  74;



CITY           SKY/WX    TMP DP  RH WIND       PRES   REMARKS
DALTON*        CLOUDY    73  70  88 CALM      30.26R
LAWRENCEVILLE* CLOUDY    75  72  88 CALM      30.28R FOG
MARIETTA       PTSUNNY   75  72  91 SE6       30.28R
KENNESAW*      CLOUDY    73  70  88 CALM      30.26R
CANTON*        CLOUDY    72  63  73 CALM      30.30S
BLAIRSVILLE*     N/A    N/A N/A N/A MISG      30.33R
$$

GAZ059>098-102>109-241300-
CENTRAL GEORGIA

CITY           SKY/WX    TMP DP  RH WIND       PRES   REMARKS
AUGUSTA-BUSH   MOSUNNY   74  70  87 CALM      30.26R
6HR MIN TEMP:  71; 6HR MAX TEMP:  77;

AUGUSTA-DANIEL PTSUNNY   78  68  71 E3        30.28R
6HR MIN TEMP:  77; 6HR MAX TEMP:  79;

COLUMBUS       CLEAR     74  73  97 E7        30.23R
6HR MIN TEMP:  74; 6HR MAX TEMP:  75;

MACON          MOSUNNY   76  73  91 CALM      30.25R
6HR MIN TEMP:  75; 6HR MAX TEMP:  76;

ROBINS AFB     MOSUNNY   75 N/A N/A NE1       30.24R


CITY           SKY/WX    TMP DP  RH WIND       PRES   REMARKS
LAGRANGE*      PTCLDY    75  75 100 CALM      30.26R
SYLVANIA*      CLOUDY   N/A N/A N/A E6        30.25S
MILLEDGEVILLE* CLOUDY    77  75  94 E5        30.26R
$$

GAZ099>101-110>166-241300-
SOUTH GEORGIA

CITY           SKY/WX    TMP DP  RH WIND       PRES   REMARKS
SAVANNAH       MOSUNNY   75  71  87 N8        30.23R
6HR MIN TEMP:  73; 6HR MAX TEMP:  77;

VALDOSTA       CLOUDY    75  75 100 CALM      30.20R FOG
6HR MIN TEMP:  75; 6HR MAX TEMP:  76;

ALMA           CLOUDY    76  74  93 NE3       30.22R
6HR MIN TEMP:  73; 6HR MAX TEMP:  76;

ST SIMONS      SUNNY     83  71  67 E8        30.20R
6HR MIN TEMP:  82; 6HR MAX TEMP:  83;

FT STEWART     SUNNY     74  71  91 NE5       30.21R
ALBANY         PTSUNNY   76  74  93 NE8       30.24R
HUNTER AFB     SUNNY     77  75  96 CALM      30.20R
MOODY AFB      PTSUNNY   74  74  98 NE3       30.20R
BRUNSWICK      SUNNY     79  77  94 N3        30.21R


CITY           SKY/WX    TMP DP  RH WIND       PRES   REMARKS
BAINBRIDGE*    CLOUDY    77  73  88 CALM      30.20R
MOULTRIE*      CLOUDY    75  73  94 CALM      30.21R FOG
VIDALIA*       CLOUDY    75  75 100 NE5       30.25R
WAYCROSS*        N/A     77  77 100 CALM      30.22R
DOUGLAS*       MOSUNNY   77  73  88 NE6       30.24R
$$




USA.gov is the U.S. government's official web portal to all federal, state and local government web resources and services.